Date String (YYYY-MM-DD hh:mm:ss) UTC,Instrument flags,absolute air pressure of the measurement (hPa),sample flow rate (lpm),inlet stack bypass flow (lpm),air temperature of the measurement (°C),ambient temperature measured by the external sensor (°C),aerosol sample conditioner tube jacket temperature (°C),OPC LED temperature (°C),internal box temperature (°C),relative humidity of the measurement (%),span deviation,mass concentration of particles derived from Lorenz-Mie calculation of OPC scattering (μg/m³),mass concentration of particles derived from Lorenz-Mie calculation of OPC scattering (μg/m³),mass concentration of particles derived from Lorenz-Mie calculation of OPC scattering (μg/m³)
DateTimeUTC,F1_M11,P_M11,Q1_M11,Q2_M11,T1_M11,T2_M11,T3_M11,T4_M11,T5_M11,U1_M11,ZSPAN_M11,X2_M11,X0_M11,X1_M11
2023-11-18 15:00:00,SystemResetWarning,0830.0,5.00,000.00,022.8,021.9,000.0,030.9,024.2,18.0,0004.2,0005.32,0010.52,0004.69
2023-11-18 15:01:00,SystemResetWarning,0830.0,5.00,000.00,022.8,022.0,000.0,030.9,024.2,17.9,0004.0,0005.60,0011.08,0004.91
2023-11-18 15:02:00,SystemResetWarning,0830.1,5.00,000.00,022.8,022.0,000.0,031.0,024.2,18.0,0003.9,0005.86,0011.38,0005.13
2023-11-18 15:03:00,SystemResetWarning,0830.0,5.00,000.00,022.8,022.0,000.0,031.0,024.2,18.0,0004.4,0006.03,0011.86,0005.27
2023-11-18 15:04:00,SystemResetWarning,0830.0,5.00,000.00,022.8,022.0,000.0,031.0,024.2,17.9,0004.4,0006.03,0012.20,0005.26
2023-11-18 15:05:00,SystemResetWarning,0830.0,5.00,000.00,022.8,022.1,000.0,031.0,024.3,17.8,0004.1,0006.04,0012.19,0005.26
2023-11-18 15:06:00,SystemResetWarning,0830.0,5.00,000.00,022.9,022.1,000.0,031.0,024.3,17.8,0004.1,0006.04,0012.20,0005.27
2023-11-18 15:07:00,SystemResetWarning,0830.0,5.00,000.00,022.9,022.1,000.0,031.0,024.3,17.7,0004.2,0005.99,0012.18,0005.24
2023-11-18 15:08:00,SystemResetWarning,0830.0,5.00,000.00,022.9,022.1,000.0,031.0,024.3,17.8,0003.9,0005.95,0012.47,0005.20
2023-11-18 15:09:00,SystemResetWarning,0830.0,5.00,000.00,022.9,022.1,000.0,031.1,024.4,17.8,0003.7,0005.98,0013.33,0005.23
2023-11-18 15:10:00,SystemResetWarning,0830.0,5.00,000.00,022.9,022.2,000.0,031.1,024.4,17.8,0003.1,0005.96,0013.54,0005.23
2023-11-18 15:11:00,SystemResetWarning,0830.0,5.00,000.00,022.9,022.2,000.0,031.1,024.4,17.8,0002.9,0005.95,0013.29,0005.23
2023-11-18 15:12:00,SystemResetWarning,0830.0,5.00,000.00,023.0,022.2,000.0,031.1,024.4,17.9,0002.9,0005.92,0013.68,0005.22
2023-11-18 15:13:00,SystemResetWarning,0830.0,5.00,000.00,023.0,022.2,000.0,031.1,024.4,18.1,0002.5,0005.91,0014.09,0005.19
2023-11-18 15:14:00,SystemResetWarning,0830.1,5.01,000.00,023.0,022.2,000.0,031.1,024.4,18.0,0002.0,0005.85,0014.31,0005.18
2023-11-18 15:15:00,SystemResetWarning,0830.0,5.00,000.00,023.0,022.2,000.0,031.2,024.4,18.0,0002.5,0005.87,0013.97,0005.20
2023-11-18 15:16:00,SystemResetWarning,0829.9,5.00,000.00,023.0,022.3,000.0,031.2,024.5,18.1,0002.7,0005.88,0014.07,0005.21
2023-11-18 15:17:00,SystemResetWarning,0829.9,5.00,000.00,023.0,022.3,000.0,031.2,024.5,18.2,0002.7,0005.82,0014.14,0005.20
2023-11-18 15:18:00,SystemResetWarning,0829.9,5.00,000.00,023.1,022.3,000.0,031.2,024.5,18.2,0003.0,0005.84,0014.20,0005.22
2023-11-18 15:19:00,SystemResetWarning,0829.9,4.99,000.00,023.1,022.3,000.0,031.2,024.5,18.1,0003.1,0005.89,0013.95,0005.28
2023-11-18 15:20:00,SystemResetWarning,0829.9,4.99,000.00,023.1,022.3,000.0,031.2,024.5,17.7,0003.2,0005.94,0013.34,0005.29
2023-11-18 15:21:00,SystemResetWarning,0829.9,4.99,000.00,023.1,022.4,000.0,031.2,024.6,17.6,0003.7,0005.99,0012.97,0005.32
2023-11-18 15:22:00,SystemResetWarning,0829.9,5.01,000.00,023.1,022.4,000.0,031.3,024.6,17.7,0003.6,0006.04,0013.17,0005.36
2023-11-18 15:23:00,SystemResetWarning,0829.9,5.01,000.00,023.1,022.4,000.0,031.3,024.6,17.9,0003.4,0006.10,0013.45,0005.39
2023-11-18 15:24:00,SystemResetWarning,0830.0,5.00,000.00,023.2,022.4,000.0,031.3,024.6,17.8,0003.5,0006.09,0014.44,0005.43
2023-11-18 15:25:00,SystemResetWarning,0830.0,5.00,000.00,023.2,022.5,000.0,031.3,024.6,17.9,0003.3,0006.11,0015.11,0005.43
2023-11-18 15:26:00,SystemResetWarning,0830.0,4.99,000.00,023.2,022.5,000.0,031.3,024.7,17.9,0003.1,0006.06,0015.05,0005.36
2023-11-18 15:27:00,SystemResetWarning,0830.0,5.00,000.00,023.2,022.5,000.0,031.3,024.7,17.9,0002.9,0005.99,0014.98,0005.30
2023-11-18 15:28:00,SystemResetWarning,0830.1,5.01,000.00,023.2,022.5,000.0,031.4,024.7,17.5,0003.0,0005.99,0015.25,0005.25
2023-11-18 15:29:00,SystemResetWarning,0830.0,5.01,000.00,023.3,022.5,000.0,031.4,024.7,17.6,0002.7,0005.95,0015.50,0005.21
2023-11-18 15:30:00,SystemResetWarning,0830.0,5.00,000.00,023.3,022.6,000.0,031.4,024.8,17.4,0002.8,0005.92,0015.46,0005.18
2023-11-18 15:31:00,SystemResetWarning,0830.0,5.00,000.00,023.3,022.6,000.0,031.4,024.8,17.6,0003.0,0005.81,0015.15,0005.12
2023-11-18 15:32:00,SystemResetWarning,0830.0,4.99,000.00,023.3,022.6,000.0,031.4,024.8,17.5,0002.7,0005.71,0014.95,0005.05
2023-11-18 15:33:00,SystemResetWarning,0830.0,5.01,000.00,023.3,022.6,000.0,031.4,024.8,17.4,0003.1,0005.61,0015.02,0004.95
2023-11-18 15:34:00,SystemResetWarning,0830.0,5.02,000.00,023.3,022.6,000.0,031.5,024.8,17.3,0003.6,0005.42,0014.23,0004.79
2023-11-18 15:35:00,SystemResetWarning,0830.1,5.00,000.00,023.4,022.6,000.0,031.5,024.8,17.3,0003.8,0005.22,0012.87,0004.63
2023-11-18 15:36:00,SystemResetWarning,0830.0,4.99,000.00,023.4,022.7,000.0,031.5,024.8,17.4,0004.1,0005.04,0010.51,0004.46
2023-11-18 15:37:00,SystemResetWarning,0830.0,5.00,000.00,023.4,022.7,000.0,031.5,024.9,17.4,0004.1,0004.90,0010.06,0004.34
2023-11-18 15:38:00,SystemResetWarning,0830.0,5.02,000.00,023.4,022.7,000.0,031.5,024.9,17.5,0003.9,0004.78,0009.71,0004.25
2023-11-18 15:39:00,SystemResetWarning,0830.0,5.00,000.00,023.4,022.7,000.0,031.6,024.9,17.3,0003.9,0004.65,0009.98,0004.14
2023-11-18 15:40:00,SystemResetWarning,0830.0,4.99,000.00,023.5,022.8,000.0,031.6,024.9,17.1,0003.7,0004.52,0009.85,0004.06
2023-11-18 15:41:00,SystemResetWarning,0830.0,4.99,000.00,023.5,022.8,000.0,031.6,025.0,17.1,0003.4,0004.40,0010.24,0003.97
2023-11-18 15:42:00,SystemResetWarning,0830.0,5.01,000.00,023.5,022.8,000.0,031.6,025.0,17.2,0003.4,0004.32,0010.90,0003.87
2023-11-18 15:43:00,SystemResetWarning,0829.9,5.00,000.00,023.5,022.8,000.0,031.6,025.0,17.3,0000.3,0004.21,0011.13,0003.77
2023-11-18 15:44:00,SystemResetWarning,0829.8,5.01,000.00,023.5,022.8,000.0,031.6,025.0,17.3,0002.2,0004.13,0010.57,0003.69
2023-11-18 15:45:00,SystemResetWarning,0829.8,5.00,000.00,023.6,022.9,000.0,031.7,025.0,17.4,0004.2,0004.21,0011.00,0003.77
2023-11-18 15:46:00,SystemResetWarning,0829.8,4.98,000.00,023.6,022.9,000.0,031.7,025.1,17.4,0003.9,0004.32,0011.40,0003.84
2023-11-18 15:47:00,SystemResetWarning,0829.9,4.99,000.00,023.6,022.9,000.0,031.7,025.1,17.4,0003.8,0004.42,0011.59,0003.93
2023-11-18 15:48:00,SystemResetWarning,0829.8,4.99,000.00,023.6,022.9,000.0,031.7,025.1,17.4,0004.0,0004.52,0011.72,0004.03
2023-11-18 15:49:00,SystemResetWarning,0829.8,5.00,000.00,023.7,023.0,000.0,031.7,025.1,17.3,0004.1,0004.67,0012.21,0004.16
2023-11-18 15:50:00,SystemResetWarning,0829.8,5.01,000.00,023.7,023.0,000.0,031.8,025.1,17.3,0004.1,0004.80,0013.55,0004.29
2023-11-18 15:51:00,SystemResetWarning,0829.8,5.01,000.00,023.7,023.0,000.0,031.8,025.1,17.3,0004.3,0004.97,0013.89,0004.43
2023-11-18 15:52:00,SystemResetWarning,0829.8,5.00,000.00,023.7,023.0,000.0,031.8,025.2,17.3,0004.3,0005.19,0014.40,0004.59
2023-11-18 15:53:00,SystemResetWarning,0829.8,4.99,000.00,023.7,023.0,000.0,031.8,025.2,17.3,0004.6,0005.34,0013.69,0004.74
2023-11-18 15:54:00,SystemResetWarning,0829.8,4.99,000.00,023.8,023.1,000.0,031.8,025.2,17.3,0004.5,0005.47,0013.45,0004.90
2023-11-18 15:55:00,SystemResetWarning,0829.8,5.00,000.00,023.8,023.1,000.0,031.9,025.3,17.4,0004.6,0005.64,0013.73,0005.06
2023-11-18 15:56:00,SystemResetWarning,0829.8,5.01,000.00,023.8,023.1,000.0,031.9,025.3,17.4,0004.3,0005.73,0014.29,0005.16
2023-11-18 15:57:00,SystemResetWarning,0829.8,5.00,000.00,023.8,023.1,000.0,031.9,025.3,17.5,0004.7,0005.85,0014.88,0005.27
2023-11-18 15:58:00,SystemResetWarning,0829.8,5.01,000.00,023.9,023.1,000.0,031.9,025.3,17.3,0004.6,0006.00,0015.03,0005.39
2023-11-18 15:59:00,SystemResetWarning,0829.8,5.00,000.00,023.9,023.2,000.0,031.9,025.4,17.4,0004.5,0006.08,0015.32,0005.46
